User: anonymous   Login
Location: Unspecified
(0.0000°N, 0.0000°E)
Time: 17:56:50
(UTC+00:00)
Language:

USA 207 - Orbit

View from above orbital plane
View from above orbital plane
View from above satellite
View from above satellite

Ground track
Ground track

The orbit data is extracted from the following two-line orbital elements,

1 35815U 09047A   15189.89397603 0.00000000  00000-0  00000-0 0    04
2 35815   0.0725 295.8445 0003476 107.2814 252.7754  1.00270000    00
Epoch (UTC): 08 July 2015 21:27:19
Eccentricity: 0.0003476
inclination: 0.0725°
perigee height: 35772 km
apogee height: 35801 km
right ascension of ascending node: 295.8445°
argument of perigee: 107.2814°
revolutions per day: 1.00270000
mean anomaly at epoch: 252.7754°
orbit number at epoch: 0

The dashed part of the orbit path shows where the satellite is in the earth's shadow,  

DLR